www.pogodaiklimat.ru

Погода и климат >> Архив погоды >> Россия >> Приморский край >> Рудная Пристань


АРХИВ ПОГОДЫ в Рудной Пристани

Время (UTC), дата Ветер
(напр.,м/с)
 
Видим.   Явления Облачность Т
(С)
Тd
(С)
f
(%)
Тe
(С)
Тes
(С)
Комфортность P
(гПа)
Po
(гПа)
Тmin
(С)
Tmax
(С)
R
(мм)
R24
(мм)
S
(см)
09 12.08 З 1 20 км {ливн. осадки} 10/8 600 м
[Cb cap Ac trans Ci sp]
+19.0 +18.6 98 +22 +22 комфорт 1005.7 1001.9 +20.1 1
12 12.08 СЗ 1 20 км {ливн. осадки} 8/3 600 м
[Cb cap Ac trans Ci sp]
+17.3 +17.2 99 +18 +18 1007.1 1003.2
15 12.08 штиль 0 500 м туман ?/? +16.6 +16.6 100 +16 +16 1007.9 1004.0
18 12.08 В 1 500 м туман ?/? +16.0 +15.9 99 +17 +17 1009.2 1005.2
21 12.08 В 1 10 км в посл. час туман 10/10 300 м
[St]
+15.9 +15.9 100 +17 +17 1010.4 1006.4 +15.9
00 13.08 В 2 20 км {туман} 10/10 600 м
[Sc]
+16.9 +16.4 97 +17 +17 1011.9 1008.0
03 13.08 В 2 20 км 9/9 600 м
[Sc]
+18.4 +16.8 90 +20 +21 1012.4 1008.5
06 13.08 В 2 20 км 10/8 300 м
[St As trans]
+17.6 +16.4 93 +18 +19 1012.8 1008.9
09 13.08 СВ 1 20 км 10/8 600 м
[Sc As trans]
+17.3 +15.4 89 +18 +18 1012.1 1008.2 +18.4
12 13.08 З 1 20 км 10/6 600 м
[Sc Ac trans Ci sp]
+16.0 +15.4 96 +17 +17 1013.1 1009.1
15 13.08 штиль 0 20 км 8/4 600 м
[Sc Ac lent Ci sp]
+15.7 +15.4 98 +15 +15 1012.1 1008.1
18 13.08 штиль 0 20 км в посл. час ливневой дождь 10/10 600 м
[Cb cap]
+15.5 +15.5 100 +15 +15 1011.5 1007.5
21 13.08 штиль 0 20 км {ливн. осадки} 10/8 600 м
[Cb cap As op]
+15.8 +15.8 100 +16 +16 1011.1 1007.2 +15.4 0.6
00 14.08 ЮВ 1 20 км в посл. час ливневой дождь 9/8 600 м
[Cb cap Ac cast]
+17.8 +15.7 88 +19 +20 1011.0 1007.1
03 14.08 ЮВ 2 20 км 10/8 600 м
[Cb cap As trans]
+18.3 +16.1 87 +19 +21 1010.3 1006.4
06 14.08 В 2 20 км 9/3 600 м
[Sc diur, vesp Ac trans]
+18.5 +15.6 83 +20 +23 1009.5 1005.6
09 14.08 В 1 20 км 4/1 600 м
[Sc Cc]
+17.8 +15.1 84 +19 +19 1009.1 1005.2 +18.8 0.0
12 14.08 СВ 1 20 км 3/1 600 м
[Sc Ci sp]
+15.5 +15.0 97 +16 +16 1009.5 1005.6
15 14.08 ЮЗ 2 20 км 8/1 600 м
[Sc Ci sp]
+14.6 +14.2 97 +14 +14 1008.8 1004.9
18 14.08 З 1 20 км 9/4 600 м
[Sc Ac trans]
+15.0 +14.8 99 +15 +15 1008.1 1004.2
21 14.08 штиль 0 20 км 10/4 600 м
[Cb cap As trans]
+17.2 +15.2 88 +17 +17 1007.9 1004.0 +14.6
00 15.08 штиль 0 20 км 10/4 600 м
[Cb cap As op]
+18.7 +16.1 85 +20 +21 1007.1 1003.3
03 15.08 ЮВ 1 20 км 10/4 600 м
[Cb cap As op]
+18.8 +17.0 89 +21 +23 комфорт 1006.1 1002.2
06 15.08 В 2 50 км мгла ?/? +20.4 +17.7 84 +24 +25 комфорт 1004.5 1000.7
09 15.08 В 3 20 км 10/8 600 м
[Cb cap As op]
+19.3 +17.2 88 +21 +21 комфорт 1003.7 999.8 +21.0
12 15.08 В 3
{11}
20 км 10/8 600 м
[Cb cap As op]
+19.0 +17.7 92 +21 +21 комфорт 1003.9 1000.0
15 15.08 В 3 20 км 10/8 600 м
[Cb cap As op]
+18.8 +17.0 89 +20 +20 1001.9 998.0
18 15.08 В 2
{10}
20 км 10/8 600 м
[Cb cap As op]
+19.8 +15.5 76 +23 +23 комфорт 1000.1 996.2
21 15.08 СВ 2
{10}
10 км слаб. ливневой дождь 10/8 600 м
[Cb cap As op]
+19.3 +15.9 81 +22 +22 комфорт 998.5 994.7 +18.7 0.0
00 16.08 СВ 4-12
{12}
20 км в посл. час ливневой дождь 10/8 600 м
[Cb cap As op]
+19.2 +15.2 78 +21 +21 комфорт 997.1 993.3 +18.6
03 16.08 СВ 3
{14}
20 км 10/8 600 м
[Cb cap As op]
+18.9 +15.6 81 +20 +21 995.0 991.1
06 16.08 СВ 3-11
{11}
10 км слаб. ливневой дождь 10/8 300 м
[Cb cap As op]
+18.4 +16.3 88 +19 +19 993.2 989.4
09 16.08 В 3
{12}
10 км слаб. ливневой дождь 10/8 300 м
[Cb cap As op]
+18.8 +16.7 88 +20 +20 991.8 988.0 +19.7 5
12 16.08 СВ 2
{11}
10 км слаб. ливневой дождь 10/8 600 м
[Cb cap As op]
+19.7 +16.6 82 +23 +23 комфорт 992.0 988.2
15 16.08 СВ 3 20 км в посл. час ливневой дождь 10/8 600 м
[Cb cap As op]
+19.8 +16.0 79 +22 +22 комфорт 991.9 988.1
18 16.08 СЗ 2 20 км {ливн. осадки} 10/8 600 м
[Cb cap As op]
+18.3 +16.6 90 +19 +19 993.6 989.8
21 16.08 З 1 20 км 9/6 600 м
[Cb cap Ac cast]
+17.2 +17.0 99 +18 +18 995.6 991.7 +17.1 3
00 17.08 ЮВ 2 20 км 9/8 600 м
[Cb cap Ac trans]
+19.0 +16.6 86 +21 +22 комфорт 997.6 993.7
03 17.08 В 3 20 км 10/4 600 м
[Sc diur, vesp Ac trans Ci sp]
+19.0 +15.4 80 +21 +25 комфорт 998.9 995.0
06 17.08 В 4 20 км 10/6 600 м
[Sc Ac trans Ci sp]
+18.0 +14.3 79 +18 +19 1000.3 996.4
09 17.08 В 5-10
{10}
20 км 10/8 600 м
[Cb cap As op]
+15.8 +13.1 84 +15 +15 1002.5 998.6 +20.1
12 17.08 В 4
{10}
20 км 10/8 600 м
[Cb cap As op]
+14.8 +12.8 88 +14 +14 1005.4 1001.5
15 17.08 В 4
{10}
20 км 10/8 600 м
[Cb cap As op]
+14.2 +12.8 91 +13 +13 1006.7 1002.8
18 17.08 В 2
{10}
20 км 10/8 600 м
[Cb cap As op]
+14.5 +12.1 86 +14 +14 1007.4 1003.4
21 17.08 В 3 20 км 10/8 600 м
[Cb cap As op]
+14.4 +12.7 90 +13 +13 1008.8 1004.9 +14.2
00 18.08 В 3 20 км 10/8 600 м
[Cb cap As op]
+14.9 +13.2 90 +14 +14 1010.2 1006.3
03 18.08 В 3 20 км 10/8 600 м
[Cb cap As op]
+15.7 +13.5 87 +15 +16 1010.7 1006.8
06 18.08 В 2 20 км 10/8 600 м
[Cb cap As op]
+15.9 +13.6 86 +16 +16 1010.3 1006.3
09 18.08 В 2 10 км 10/10 300 м
[St]
+14.5 +13.1 91 +14 +14 1010.4 1006.4 +16.2
12 18.08 З 2 10 км слаб. ливневой дождь 10/8 600 м
[Cb cap As op]
+14.1 +13.4 96 +13 +13 1011.6 1007.7
15 18.08 штиль 0 20 км в посл. час ливневой дождь 10/8 600 м
[Cb cap As op]
+14.0 +13.4 96 +14 +14 1012.5 1008.5
18 18.08 штиль 0 10 км слаб. ливневой дождь 10/8 600 м
[Cb cap As op]
+14.0 +13.8 99 +14 +14 1013.1 1009.1
21 18.08 СВ 1 {ливн. осадки} н/о +14.8 +14.4 97 +15 +15 1014.0 1010.0 +13.8 9
00 19.08 штиль 0 20 км {ливн. осадки} 10/8 600 м
[Cb cap As op]
+15.8 +15.6 99 +16 +16 1014.5 1010.6
03 19.08 ЮВ 1 20 км {ливн. осадки} 10/6 600 м
[Cb cap As op]
+17.3 +16.0 92 +18 +20 1014.6 1010.7
06 19.08 В 2 20 км {ливн. осадки} 10/6 600 м
[Cb cap As op]
+17.5 +15.5 88 +18 +19 1014.2 1010.3

 

Местоположение метеостанции Рудная Пристань (Приморский край, Россия): широта 44.37 долгота 135.80 высота над уровнем моря 34 м.

В архиве по умолчанию представлена погода в Рудной Пристани за последнюю неделю. Архивные данные за месяц целиком и за предыдущие месяцы, начиная с января 2011 года, Вы можете получить, выбрав интересующий диапазон дат из раскрывающегося списка и нажав кнопку "Ввод!".


*Определитесь, кто Вы:
робот инопланетянин человек

Внимание! Время в таблицах - всемирное. Для получения местного времени необходимо прибавить поправку, которая равна 10 ч.

Смотрите также архив погоды в соседних городах и на ближайших метеорологических станциях:

Погода в Богополе (Приморский край, Россия) (35 км)
Погода в Кавалерово (Приморский край, Россия) (65 км)
Погода в Ольге (Приморский край, Россия) (80 км)
Погода в Дальнегорске (Приморский край, Россия) (93 км)
Погода в Тернее (Приморский край, Россия) (94 км)
Погода в Мельничном (Приморский край, Россия) (122 км)
Погода в Лучегорске (Приморский край, Россия) (151 км)
Погода в Малой Кеме (Приморский край, Россия) (154 км)
Погода в Чугуевке (Приморский край, Россия) (161 км)
Погода в Малиново (Приморский край, Россия) (172 км)

Пояснения к столбцам:

Ветер - указаны скорость ветра в м/с - средняя за 10 мин, порывы в срок и между сроками (в фигурных скобках) и направление, откуда дует ветер: С - северный, СВ - северо-восточный, В - восточный, ЮВ - юго-восточный, Ю - южный, ЮЗ - юго-западный, З - западный, СЗ - северо-западный.
Видимость - горизонтальная дальность видимости в метрах или километрах. При видимости от 1 до 10 км при отсутствии осадков обычно наблюдается дымка, при ухудшении видимости до 1 км и менее - туман. В сухую погоду видимость может ухудшаться дымом, пылью или мглою.
Явления - указаны атмосферные явления, наблюдавшиеся в срок или в последний час перед сроком; фигурными скобками обозначены явления, наблюдавшиеся между сроками (за 1-3 часа до срока); квадратными скобками обозначены град или гололедные отложения с указанием их диаметра в мм.
Облачность - указаны через наклонную черту общая и нижняя облачность в баллах и высота нижней границы облаков в метрах; квадратными скобками обозначены формы облаков: Ci - перистые, Cs - перисто-слоистые, Cc - перисто-кучевые, Ac - высококучевые, As - высокослоистые, Sc - слоисто-кучевые, Ns - слоисто-дождевые, Cu - кучевые, Cb - кучево-дождевые. Подробнее классификацию облаков см. в Атласе облаков (PDF).
T - Температура воздуха - температура, измеренная на высоте 2 м над землей.
Td - Температура точки росы - температура, при понижении до которой содержащийся в воздухе водяной пар достигнет насыщения.
f - Относительная влажность воздуха - влажноcть воздуха, измеренная на высоте 2 м над землей.
Te - Эффективная температура - температура, которую ощущает одетый по сезону человек в тени. Характеристика душности погоды. При расчете учитывается влияние влажности воздуха и скорости ветра на теплоощущения человека.
Tes - Эффективная температура на солнце - температура, которую ощущает человек, с поправкой на солнечный нагрев. Характеристика знойности погоды. Зависит от высоты солнца над горизонтом, облачности и скорости ветра. Ночью, в пасмурную погоду, а также при ветре 12 м/с и более поправка равна нулю.
P - Атмосферное давление - приведенное к уровню моря атмосферное давление.
Po - Атмосферное давление - измеренное на уровне метеостанции атмосферное давление.
Tmin - Минимальная температура - минимум температуры воздуха на высоте 2 м над землей.
Tmax - Максимальная температура - максимум температуры воздуха на высоте 2 м над землей.
R - Количество осадков - Количество выпавших осадков за период времени, мм. При наведении курсора мыши на число - период времени, за который выпало указанное количество осадков.
R24 - Количество осадков - Количество выпавших осадков за 24 часа, мм.
S - Снежный покров - Высота снежного покрова, см. При наведении курсора мыши на число - состояние снежного покрова и степень покрытия местности в баллах.